DW5686 Weather Reports


Display with metric or nautical units.
time (UTC)temp
F
wind
direction
speed
MPH
gust
MPH
rain 1hr
in
rain 24hr
in
rain mn
in
humidity
%
barometer
mb
20260901035504 76 161 2.0 2.0 0.00 0.00 0.00 84 1019.1
20260901035003 76 0 0.0 0.0 0.00 0.00 0.00 84 1019.1
20260901034503 76 0 0.0 0.0 0.00 0.00 0.00 84 1019.2
20260901034004 76 0 0.0 0.0 0.00 0.00 0.00 84 1019.3
20260901033502 77 0 0.0 0.0 0.00 0.00 0.00 84 1019.3
20260901033002 77 0 0.0 1.0 0.00 0.00 0.00 83 1019.2
20260901032503 77 161 0.0 1.0 0.00 0.00 0.00 83 1019.2
20260901032002 77 161 0.0 1.0 0.00 0.00 0.00 83 1019.2
20260901031503 77 161 0.0 3.0 0.00 0.00 0.00 83 1019.1
20260901031003 77 161 1.0 3.0 0.00 0.00 0.00 82 1019.1
20260901030502 77 0 0.0 1.0 0.00 0.00 0.00 82 1019.0
20260901030003 78 161 0.0 1.0 0.00 0.00 0.00 81 1019.2
20260901025504 78 0 0.0 3.0 0.00 0.00 0.00 81 1019.3
20260901025023 78 161 0.0 5.0 0.00 0.00 0.00 81 1019.3
20260901024503 78 162 2.0 5.0 0.00 0.00 0.00 81 1019.4
20260901024002 78 166 1.0 2.0 0.00 0.00 0.00 79 1019.5
20260901023503 78 0 0.0 0.0 0.00 0.00 0.00 79 1019.4
20260901023024 78 0 0.0 0.0 0.00 0.00 0.00 79 1019.4
20260901022502 78 0 0.0 1.0 0.00 0.00 0.00 78 1019.4
20260901022003 79 166 0.0 1.0 0.00 0.00 0.00 78 1019.3
20260901021503 79 0 0.0 2.0 0.00 0.00 0.00 78 1019.3
20260901021003 79 166 1.0 2.0 0.00 0.00 0.00 77 1019.3
20260901020523 79 166 2.0 2.0 0.00 0.00 0.00 77 1019.2
20260901020002 79 166 0.0 1.0 0.00 0.00 0.00 77 1019.1
20260901015502 79 0 0.0 1.0 0.00 0.00 0.00 77 1019.0
20260901015003 78 0 0.0 1.0 0.00 0.00 0.00 77 1019.0
20260901014502 78 166 0.0 1.0 0.00 0.00 0.00 76 1018.8
20260901014023 78 0 0.0 1.0 0.00 0.00 0.00 77 1018.7
20260901013503 79 0 0.0 0.0 0.00 0.00 0.00 76 1018.7
20260901013002 79 0 0.0 1.0 0.00 0.00 0.00 76 1018.7
20260901012504 79 0 0.0 1.0 0.00 0.00 0.00 75 1018.5
20260901012002 79 166 0.0 1.0 0.00 0.00 0.00 75 1018.5
20260901011502 79 0 0.0 0.0 0.00 0.00 0.00 74 1018.5
20260901011003 79 0 0.0 0.0 0.00 0.00 0.00 74 1018.4
20260901010503 79 0 0.0 1.0 0.00 0.00 0.00 72 1018.4
20260901010003 80 0 0.0 1.0 0.00 0.00 0.00 71 1018.3
20260901005502 80 0 0.0 0.0 0.00 0.00 0.00 71 1018.3
20260901005003 80 0 0.0 1.0 0.00 0.00 0.00 70 1018.2
20260901004503 80 0 0.0 2.0 0.00 0.00 0.00 70 1018.2
20260901004002 81 166 1.0 2.0 0.00 0.00 0.00 69 1018.1
20260901003524 81 0 0.0 1.0 0.00 0.00 0.00 69 1018.0
20260901003004 81 166 0.0 2.0 0.00 0.00 0.00 68 1018.0
20260901002502 82 166 1.0 2.0 0.00 0.00 0.00 68 1017.9
20260901002003 82 166 0.0 2.0 0.00 0.00 0.00 67 1018.0
20260901001502 82 166 1.0 2.0 0.00 0.00 0.00 67 1017.9
20260901001024 82 166 1.0 2.0 0.00 0.00 0.00 67 1017.9
20260901000502 82 166 2.0 2.0 0.00 0.00 0.00 67 1018.0
20260901000003 82 166 2.0 2.0 0.00 0.00 0.00 65 1017.9
20260831235504 83 166 0.0 2.0 0.00 0.00 0.00 65 1017.9
20260831235002 83 0 0.0 0.0 0.00 0.00 0.00 64 1017.9
20260831234503 83 0 0.0 0.0 0.00 0.00 0.00 64 1017.8
20260831234002 84 0 0.0 0.0 0.00 0.00 0.00 63 1017.9
20260831233502 84 0 0.0 0.0 0.00 0.00 0.00 62 1017.9
20260831233002 84 0 0.0 0.0 0.00 0.00 0.00 62 1018.0
20260831232502 85 0 0.0 0.0 0.00 0.00 0.00 61 1017.9
20260831232003 85 0 0.0 0.0 0.00 0.00 0.00 61 1018.0
20260831231504 86 0 0.0 2.0 0.00 0.00 0.00 59 1018.1
20260831231003 86 166 1.0 2.0 0.00 0.00 0.00 57 1018.1
20260831230503 86 166 0.0 1.0 0.00 0.00 0.00 58 1018.1
20260831230003 86 0 0.0 0.0 0.00 0.00 0.00 58 1018.1
20260831225502 86 0 0.0 2.0 0.00 0.00 0.00 56 1018.1
20260831225002 86 166 0.0 2.0 0.00 0.00 0.00 57 1018.1
20260831224503 86 0 0.0 1.0 0.00 0.00 0.00 58 1018.1
20260831224023 87 166 0.0 2.0 0.00 0.00 0.00 57 1018.3
20260831223504 88 166 1.0 2.0 0.00 0.00 0.00 56 1018.4
20260831223002 88 166 0.0 6.0 0.00 0.00 0.00 50 1018.3
20260831222503 88 159 3.0 6.0 0.00 0.00 0.00 51 1018.4
20260831222004 88 156 0.0 5.0 0.00 0.00 0.00 50 1018.4
20260831221503 89 156 3.0 5.0 0.00 0.00 0.00 49 1018.4
20260831221003 89 156 0.0 4.0 0.00 0.00 0.00 50 1018.3
20260831220504 89 150 1.0 5.0 0.00 0.00 0.00 51 1018.2
20260831220003 89 160 2.0 5.0 0.00 0.00 0.00 51 1018.3
20260831215502 89 176 2.0 6.0 0.00 0.00 0.00 51 1018.3
20260831215003 89 94 1.0 9.0 0.00 0.00 0.00 51 1018.3
20260831214502 89 35 6.0 9.0 0.00 0.00 0.00 50 1018.5
20260831214002 90 27 3.0 6.0 0.00 0.00 0.00 52 1018.4
20260831213502 90 23 2.0 5.0 0.00 0.00 0.00 51 1018.5
20260831213025 91 26 2.0 5.0 0.00 0.00 0.00 50 1018.4
20260831212503 92 33 2.0 9.0 0.00 0.00 0.00 49 1018.4
20260831212002 92 12 6.0 9.0 0.00 0.00 0.00 47 1018.3
20260831211525 92 15 3.0 7.0 0.00 0.00 0.00 50 1018.4
20260831211024 92 267 1.0 5.0 0.00 0.00 0.00 50 1018.5
20260831210503 92 265 3.0 10.0 0.00 0.00 0.00 47 1018.4
20260831210024 92 239 1.0 11.0 0.00 0.00 0.00 47 1018.6
20260831205502 92 13 5.0 11.0 0.00 0.00 0.00 46 1018.5
20260831205003 92 30 5.0 12.0 0.00 0.00 0.00 49 1018.6
20260831204504 92 37 6.0 12.0 0.00 0.00 0.00 47 1018.5
20260831204002 92 11 2.0 11.0 0.00 0.00 0.00 45 1018.5
20260831203524 92 7 2.0 11.0 0.00 0.00 0.00 46 1018.6
20260831203002 94 13 5.0 10.0 0.00 0.00 0.00 44 1018.7
20260831202503 93 353 1.0 6.0 0.00 0.00 0.00 47 1018.7
20260831202003 93 325 2.0 8.0 0.00 0.00 0.00 45 1018.8
20260831201503 94 200 4.0 8.0 0.00 0.00 0.00 46 1018.8
20260831201025 94 182 1.0 8.0 0.00 0.00 0.00 46 1018.7
20260831200502 93 138 3.0 8.0 0.00 0.00 0.00 45 1018.8
20260831200025 93 199 4.0 7.0 0.00 0.00 0.00 45 1018.9
20260831195503 92 338 1.0 7.0 0.00 0.00 0.00 49 1019.0
20260831195002 92 3 5.0 10.0 0.00 0.00 0.00 46 1019.1
20260831194503 92 353 3.0 10.0 0.00 0.00 0.00 46 1019.1
20260831194003 93 233 3.0 6.0 0.00 0.00 0.00 48 1019.1
20260831193503 93 350 1.0 7.0 0.00 0.00 0.00 50 1019.1
20260831193004 94 222 4.0 7.0 0.00 0.00 0.00 47 1019.2
20260831192502 93 179 2.0 7.0 0.00 0.00 0.00 50 1019.2
20260831192003 93 222 3.0 7.0 0.00 0.00 0.00 48 1019.3
20260831191502 92 224 2.0 6.0 0.00 0.00 0.00 50 1019.3
20260831191003 92 204 3.0 9.0 0.00 0.00 0.00 50 1019.2
20260831190503 92 208 4.0 9.0 0.00 0.00 0.00 47 1019.3
20260831190003 92 227 4.0 9.0 0.00 0.00 0.00 50 1019.2
20260831185504 91 184 4.0 10.0 0.00 0.00 0.00 49 1019.3
20260831185003 92 171 6.0 10.0 0.00 0.00 0.00 53 1019.5
20260831184503 91 173 3.0 6.0 0.00 0.00 0.00 55 1019.5
20260831184003 90 170 3.0 7.0 0.00 0.00 0.00 55 1019.5
20260831183502 89 151 2.0 7.0 0.00 0.00 0.00 58 1019.6
20260831183004 89 151 2.0 6.0 0.00 0.00 0.00 55 1019.7
20260831182504 89 148 3.0 5.0 0.00 0.00 0.00 55 1019.8
20260831182024 89 342 0.0 5.0 0.00 0.00 0.00 53 1019.8
20260831181503 90 5 2.0 8.0 0.00 0.00 0.00 52 1019.8
20260831181003 89 9 5.0 9.0 0.00 0.00 0.00 58 1019.9
20260831180503 88 42 6.0 9.0 0.00 0.00 0.00 57 1019.9
20260831180004 89 4 2.0 5.0 0.00 0.00 0.00 56 1020.0
20260831175504 90 70 1.0 6.0 0.00 0.00 0.00 52 1019.9
20260831175003 91 25 0.0 6.0 0.00 0.00 0.00 52 1020.0
20260831174504 91 360 4.0 6.0 0.00 0.00 0.00 56 1020.0
20260831174003 90 184 1.0 8.0 0.00 0.00 0.00 53 1020.1
20260831173503 89 184 3.0 8.0 0.00 0.00 0.00 55 1020.2
20260831173003 90 163 3.0 7.0 0.00 0.00 0.00 56 1020.1
20260831172502 90 28 3.0 7.0 0.00 0.00 0.00 52 1020.1
20260831172003 90 57 2.0 7.0 0.00 0.00 0.00 58 1020.1
20260831171503 89 29 5.0 7.0 0.00 0.00 0.00 55 1020.2
20260831171003 89 34 4.0 10.0 0.00 0.00 0.00 58 1020.2
20260831170503 89 38 3.0 10.0 0.00 0.00 0.00 53 1020.3
20260831170003 90 26 2.0 8.0 0.00 0.00 0.00 52 1020.3
20260831165503 90 186 1.0 6.0 0.00 0.00 0.00 52 1020.3
20260831165004 90 189 3.0 6.0 0.00 0.00 0.00 53 1020.4
20260831164503 89 327 2.0 4.0 0.00 0.00 0.00 56 1020.6
20260831164025 89 255 2.0 7.0 0.00 0.00 0.00 55 1020.5
20260831163504 88 54 2.0 7.0 0.00 0.00 0.00 59 1020.5
20260831163004 88 195 3.0 7.0 0.00 0.00 0.00 57 1020.6
20260831162525 88 210 2.0 8.0 0.00 0.00 0.00 59 1020.6
20260831162004 88 156 4.0 8.0 0.00 0.00 0.00 61 1020.6
20260831161503 88 1 1.0 7.0 0.00 0.00 0.00 59 1020.7
20260831161025 87 173 1.0 7.0 0.00 0.00 0.00 62 1020.8
20260831160503 87 227 2.0 7.0 0.00 0.00 0.00 63 1020.8
20260831160003 87 287 2.0 7.0 0.00 0.00 0.00 63 1020.9
20260831155504 86 198 4.0 8.0 0.00 0.00 0.00 64 1020.8
20260831155003 86 212 4.0 8.0 0.00 0.00 0.00 63 1020.9
20260831154503 86 222 2.0 7.0 0.00 0.00 0.00 63 1020.9
20260831154003 86 4 4.0 7.0 0.00 0.00 0.00 63 1020.9
20260831153503 85 359 2.0 6.0 0.00 0.00 0.00 64 1020.9
20260831153004 85 93 1.0 6.0 0.00 0.00 0.00 65 1020.9
20260831152525 85 222 2.0 7.0 0.00 0.00 0.00 67 1020.9
20260831152003 84 211 1.0 7.0 0.00 0.00 0.00 65 1020.9
20260831151504 84 231 3.0 7.0 0.00 0.00 0.00 65 1021.0
20260831151003 84 216 2.0 7.0 0.00 0.00 0.00 67 1021.1
20260831150503 84 359 4.0 7.0 0.00 0.00 0.00 69 1021.1
20260831150003 84 36 2.0 7.0 0.00 0.00 0.00 69 1021.1
20260831145503 85 169 1.0 7.0 0.00 0.00 0.00 68 1021.2
20260831145004 84 215 4.0 7.0 0.00 0.00 0.00 70 1021.2
20260831144504 84 209 3.0 7.0 0.00 0.00 0.00 69 1021.1
20260831144025 84 197 4.0 8.0 0.00 0.00 0.00 70 1021.2
20260831143503 84 200 5.0 8.0 0.00 0.00 0.00 69 1021.1
20260831143003 84 202 3.0 7.0 0.00 0.00 0.00 69 1021.2
20260831142504 83 177 1.0 7.0 0.00 0.00 0.00 71 1021.1
20260831142004 83 289 2.0 7.0 0.00 0.00 0.00 75 1021.1
20260831141503 82 1 1.0 7.0 0.00 0.00 0.00 71 1020.9
20260831141004 82 205 2.0 7.0 0.00 0.00 0.00 74 1021.0
20260831140504 81 239 3.0 7.0 0.00 0.00 0.00 74 1021.1
20260831140004 81 201 2.0 9.0 0.00 0.00 0.00 74 1021.0
20260831135503 81 217 5.0 9.0 0.00 0.00 0.00 75 1021.0
20260831135003 81 352 3.0 5.0 0.00 0.00 0.00 77 1020.9
20260831134524 81 198 1.0 5.0 0.00 0.00 0.00 77 1020.9
20260831134003 80 229 2.0 7.0 0.00 0.00 0.00 78 1020.8
20260831133503 79 234 2.0 7.0 0.00 0.00 0.00 78 1020.9
20260831133003 79 206 2.0 7.0 0.00 0.00 0.00 81 1020.8
20260831132503 78 192 2.0 7.0 0.00 0.00 0.00 82 1020.7
20260831132004 77 187 2.0 7.0 0.00 0.00 0.00 82 1020.7
20260831131504 77 198 3.0 7.0 0.00 0.00 0.00 83 1020.7
20260831131003 77 209 3.0 7.0 0.00 0.00 0.00 83 1020.7
20260831130525 76 226 1.0 4.0 0.00 0.00 0.00 87 1020.8
20260831130003 75 221 1.0 4.0 0.00 0.00 0.00 87 1020.8
20260831125504 75 217 2.0 5.0 0.00 0.00 0.00 88 1020.9
20260831125003 74 221 2.0 5.0 0.00 0.00 0.00 89 1020.8
20260831124504 73 214 2.0 4.0 0.00 0.00 0.00 91 1020.9
20260831124003 73 212 2.0 5.0 0.00 0.00 0.00 92 1020.8
20260831123503 72 212 2.0 5.0 0.00 0.00 0.00 93 1020.9
20260831123004 72 155 1.0 2.0 0.00 0.00 0.00 93 1020.8
20260831122503 72 155 1.0 2.0 0.00 0.00 0.00 93 1020.8
20260831122003 71 155 1.0 2.0 0.00 0.00 0.00 93 1020.8
20260831121503 71 155 0.0 2.0 0.00 0.00 0.00 95 1020.9
20260831121025 71 155 0.0 1.0 0.00 0.00 0.00 93 1020.8
20260831120503 70 0 0.0 0.0 0.00 0.00 0.00 95 1020.7
20260831120004 70 0 0.0 0.0 0.00 0.00 0.00 93 1020.9
20260831115503 70 0 0.0 2.0 0.00 0.00 0.00 93 1020.7
20260831115004 70 155 0.0 2.0 0.00 0.00 0.00 93 1020.7
20260831114504 69 155 0.0 1.0 0.00 0.00 0.00 93 1020.7
20260831114004 69 0 0.0 0.0 0.00 0.00 0.00 93 1020.7
20260831113503 69 0 0.0 0.0 0.00 0.00 0.00 93 1020.7
20260831113004 69 0 0.0 0.0 0.00 0.00 0.00 93 1020.8
20260831112504 69 0 0.0 2.0 0.00 0.00 0.00 93 1020.7
20260831112004 69 0 0.0 2.0 0.00 0.00 0.00 93 1020.7
20260831111503 68 155 1.0 2.0 0.00 0.00 0.00 93 1020.6
20260831111025 68 155 0.0 1.0 0.00 0.00 0.00 93 1020.6
20260831110504 68 155 0.0 1.0 0.00 0.00 0.00 93 1020.5
20260831110003 68 0 0.0 2.0 0.00 0.00 0.00 93 1020.5
20260831105503 68 0 0.0 2.0 0.00 0.00 0.00 93 1020.5
20260831105004 69 155 1.0 2.0 0.00 0.00 0.00 93 1020.6
20260831104504 68 155 1.0 1.0 0.00 0.00 0.00 93 1020.6
20260831104003 68 155 0.0 1.0 0.00 0.00 0.00 93 1020.5
20260831103504 68 0 0.0 0.0 0.00 0.00 0.00 93 1020.4
20260831103004 68 0 0.0 0.0 0.00 0.00 0.00 93 1020.4
20260831102503 68 0 0.0 2.0 0.00 0.00 0.00 93 1020.2
20260831102003 69 155 0.0 2.0 0.00 0.00 0.00 93 1020.2
20260831101503 69 155 1.0 2.0 0.00 0.00 0.00 93 1020.3
20260831101003 69 155 1.0 2.0 0.00 0.00 0.00 93 1020.3
20260831100524 68 0 0.0 0.0 0.00 0.00 0.00 93 1020.3
20260831100003 68 0 0.0 0.0 0.00 0.00 0.00 93 1020.3
20260831095525 68 0 0.0 0.0 0.00 0.00 0.00 93 1020.2
20260831095004 69 0 0.0 0.0 0.00 0.00 0.00 93 1020.3
20260831094503 69 0 0.0 0.0 0.00 0.00 0.00 93 1020.2
20260831094004 69 0 0.0 1.0 0.00 0.00 0.00 93 1020.2
20260831093503 69 0 0.0 2.0 0.00 0.00 0.00 93 1020.2
20260831093004 69 155 0.0 2.0 0.00 0.00 0.00 93 1020.2
20260831092503 69 155 0.0 2.0 0.00 0.00 0.00 93 1020.2
20260831092004 69 155 2.0 2.0 0.00 0.00 0.00 93 1020.2
20260831091525 69 0 0.0 0.0 0.00 0.00 0.00 93 1020.1
20260831091004 69 0 0.0 0.0 0.00 0.00 0.00 93 1020.1
20260831090504 69 0 0.0 0.0 0.00 0.00 0.00 93 1020.1
20260831090004 69 0 0.0 0.0 0.00 0.00 0.00 93 1020.1
20260831085504 69 0 0.0 2.0 0.00 0.00 0.00 93 1020.0
20260831085024 69 0 0.0 2.0 0.00 0.00 0.00 93 1020.0
20260831084503 69 0 0.0 1.0 0.00 0.00 0.00 93 1020.0
20260831084003 69 0 0.0 0.0 0.00 0.00 0.00 93 1020.0
20260831083504 69 0 0.0 0.0 0.00 0.00 0.00 93 1020.0
20260831083003 69 0 0.0 0.0 0.00 0.00 0.00 93 1019.9
20260831082503 69 0 0.0 0.0 0.00 0.00 0.00 92 1020.0
20260831082003 69 0 0.0 0.0 0.00 0.00 0.00 92 1019.9
20260831081504 69 0 0.0 0.0 0.00 0.00 0.00 92 1019.9
20260831081003 69 0 0.0 0.0 0.00 0.00 0.00 92 1020.0
20260831080503 69 0 0.0 0.0 0.00 0.00 0.00 92 1020.0
20260831080003 70 0 0.0 0.0 0.00 0.00 0.00 92 1020.0
20260831075504 70 0 0.0 0.0 0.00 0.00 0.00 93 1020.0
20260831075004 70 0 0.0 0.0 0.00 0.00 0.00 92 1020.0
20260831074504 70 0 0.0 0.0 0.00 0.00 0.00 92 1020.0
20260831074024 70 0 0.0 0.0 0.00 0.00 0.00 92 1020.0
20260831073504 70 0 0.0 0.0 0.00 0.00 0.00 92 1020.0
20260831073003 70 0 0.0 0.0 0.00 0.00 0.00 92 1020.0
20260831072504 70 0 0.0 0.0 0.00 0.00 0.00 92 1020.0
20260831072003 70 0 0.0 0.0 0.00 0.00 0.00 92 1020.0
20260831071524 70 0 0.0 0.0 0.00 0.00 0.00 92 1020.0
20260831071023 70 0 0.0 1.0 0.00 0.00 0.00 92 1020.1
20260831070524 70 155 0.0 1.0 0.00 0.00 0.00 92 1020.1
20260831070002 70 0 0.0 0.0 0.00 0.00 0.00 92 1020.1
20260831065502 70 0 0.0 0.0 0.00 0.00 0.00 92 1020.1
20260831065002 70 0 0.0 0.0 0.00 0.00 0.00 92 1020.3
20260831064524 70 0 0.0 0.0 0.00 0.00 0.00 92 1020.2
20260831064002 70 0 0.0 2.0 0.00 0.00 0.00 92 1020.3
20260831063523 70 155 0.0 2.0 0.00 0.00 0.00 92 1020.3
20260831063003 70 0 0.0 0.0 0.00 0.00 0.00 92 1020.3
20260831062524 70 0 0.0 0.0 0.00 0.00 0.00 92 1020.2
20260831062002 70 0 0.0 1.0 0.00 0.00 0.00 92 1020.2
20260831061502 70 155 0.0 1.0 0.00 0.00 0.00 92 1020.2
20260831061002 70 0 0.0 0.0 0.00 0.00 0.00 92 1020.2
20260831060523 70 0 0.0 0.0 0.00 0.00 0.00 91 1020.2
20260831060003 70 0 0.0 0.0 0.00 0.00 0.00 91 1020.3
20260831055502 71 0 0.0 0.0 0.00 0.00 0.00 91 1020.3
20260831055003 71 0 0.0 0.0 0.00 0.00 0.00 91 1020.3
20260831054502 71 0 0.0 0.0 0.00 0.00 0.00 91 1020.3
20260831054002 71 0 0.0 0.0 0.00 0.00 0.00 91 1020.3
20260831053502 71 0 0.0 2.0 0.00 0.00 0.00 91 1020.4
20260831053003 71 0 0.0 2.0 0.00 0.00 0.00 91 1020.3
20260831052502 71 155 1.0 2.0 0.00 0.00 0.00 91 1020.2
20260831052003 71 155 1.0 2.0 0.00 0.00 0.00 91 1020.3
20260831051503 71 155 1.0 2.0 0.00 0.00 0.00 91 1020.3
20260831051003 71 0 0.0 1.0 0.00 0.00 0.00 91 1020.3
20260831050502 71 0 0.0 1.0 0.00 0.00 0.00 89 1020.3
20260831050002 71 155 0.0 1.0 0.00 0.00 0.00 89 1020.4
20260831045523 71 0 0.0 0.0 0.00 0.00 0.00 89 1020.3
20260831045004 71 0 0.0 0.0 0.00 0.00 0.00 89 1020.3
20260831044502 72 0 0.0 0.0 0.00 0.00 0.00 89 1020.4
20260831044003 72 0 0.0 0.0 0.00 0.00 0.00 89 1020.4
20260831043504 72 0 0.0 0.0 0.00 0.00 0.00 89 1020.4
20260831043002 72 0 0.0 1.0 0.00 0.00 0.00 89 1020.5
20260831042504 72 155 0.0 1.0 0.00 0.00 0.00 88 1020.6
20260831042023 72 0 0.0 0.0 0.00 0.00 0.00 88 1020.5
20260831041502 72 0 0.0 0.0 0.00 0.00 0.00 88 1020.5
20260831041002 72 0 0.0 0.0 0.00 0.00 0.00 88 1020.6
20260831040503 72 0 0.0 1.0 0.00 0.00 0.00 88 1020.6
20260831040002 72 0 0.0 2.0 0.00 0.00 0.00 87 1020.7